Time,TemperatureF,DewpointF,PressureIn,WindDirection,WindDirectionDegrees,WindSpeedMPH,WindSpeedGustMPH,Humidity,HourlyPrecipIn,Conditions,Clouds,dailyrainin,SoftwareType,DateUTC
2013-04-11 00:01:00,64.7,56.6,29.95,SSW,198,0.0,0.0,75,0.00,CLR,,0.00,WeatherDisplay:10.37,2013-04-11 05:01:00,
2013-04-11 00:06:00,64.5,56.8,29.94,SSW,198,0.0,0.0,76,0.00,CLR,,0.00,WeatherDisplay:10.37,2013-04-11 05:06:00,
2013-04-11 00:11:00,64.3,56.6,29.95,SSW,198,0.0,0.0,76,0.00,CLR,,0.00,WeatherDisplay:10.37,2013-04-11 05:11:00,
2013-04-11 00:16:00,64.2,56.5,29.95,SSW,198,0.0,0.0,76,0.00,CLR,,0.00,WeatherDisplay:10.37,2013-04-11 05:16:00,
2013-04-11 00:21:00,64.0,56.3,29.95,SSW,198,0.0,0.0,76,0.00,CLR,,0.00,WeatherDisplay:10.37,2013-04-11 05:21:00,
2013-04-11 00:26:00,64.0,56.6,29.95,SSW,198,0.0,0.0,77,0.00,CLR,,0.00,WeatherDisplay:10.37,2013-04-11 05:26:00,
2013-04-11 00:31:00,63.9,56.5,29.95,SSW,198,0.0,0.0,77,0.00,CLR,,0.00,WeatherDisplay:10.37,2013-04-11 05:31:00,
2013-04-11 00:36:00,63.9,56.5,29.95,SSW,198,0.0,0.0,77,0.00,CLR,,0.00,WeatherDisplay:10.37,2013-04-11 05:36:00,
2013-04-11 00:41:00,63.7,56.7,29.95,SSW,198,0.0,0.0,78,0.00,CLR,,0.00,WeatherDisplay:10.37,2013-04-11 05:41:00,
2013-04-11 00:46:00,63.7,56.7,29.94,SSW,198,0.0,0.0,78,0.00,CLR,,0.00,WeatherDisplay:10.37,2013-04-11 05:46:00,
2013-04-11 00:51:00,63.5,56.5,29.94,SSW,198,0.0,0.0,78,0.00,CLR,,0.00,WeatherDisplay:10.37,2013-04-11 05:51:00,
2013-04-11 00:56:00,63.5,56.5,29.94,SSW,198,0.0,0.0,78,0.00,CLR,,0.00,WeatherDisplay:10.37,2013-04-11 05:56:00,
2013-04-11 01:01:00,63.4,56.4,29.94,SSW,198,0.0,0.0,78,0.00,CLR,,0.00,WeatherDisplay:10.37,2013-04-11 06:01:00,
2013-04-11 01:06:00,63.2,56.6,29.94,SSW,198,0.0,0.0,79,0.00,CLR,,0.00,WeatherDisplay:10.37,2013-04-11 06:06:00,
2013-04-11 01:11:00,63.1,56.5,29.94,SSW,198,0.0,0.0,79,0.00,CLR,,0.00,WeatherDisplay:10.37,2013-04-11 06:11:00,
2013-04-11 01:16:00,62.9,56.3,29.94,SSW,198,0.0,0.0,79,0.00,CLR,,0.00,WeatherDisplay:10.37,2013-04-11 06:16:00,
2013-04-11 01:21:00,62.7,56.4,29.94,SSW,198,0.0,0.0,80,0.00,CLR,,0.00,WeatherDisplay:10.37,2013-04-11 06:21:00,
2013-04-11 01:26:00,62.7,56.4,29.94,SSW,198,0.0,0.0,80,0.00,CLR,,0.00,WeatherDisplay:10.37,2013-04-11 06:26:00,
2013-04-11 01:32:00,62.6,56.3,29.94,SSW,198,0.0,0.0,80,0.00,CLR,,0.00,WeatherDisplay:10.37,2013-04-11 06:32:00,
2013-04-11 01:37:00,62.4,56.1,29.94,SSW,198,0.0,0.0,80,0.00,CLR,,0.00,WeatherDisplay:10.37,2013-04-11 06:37:00,
2013-04-11 01:42:00,62.3,56.4,29.94,SSW,198,0.0,0.0,81,0.00,CLR,,0.00,WeatherDisplay:10.37,2013-04-11 06:42:00,
2013-04-11 01:47:00,62.3,56.4,29.94,SSW,198,0.0,0.0,81,0.00,CLR,,0.00,WeatherDisplay:10.37,2013-04-11 06:47:00,
2013-04-11 01:52:00,62.1,56.2,29.94,SSW,198,0.0,0.0,81,0.00,CLR,,0.00,WeatherDisplay:10.37,2013-04-11 06:52:00,
2013-04-11 01:57:00,62.1,56.2,29.93,SSW,198,0.0,0.0,81,0.00,CLR,,0.00,WeatherDisplay:10.37,2013-04-11 06:57:00,
2013-04-11 02:02:00,62.0,56.4,29.93,SSW,198,0.0,0.0,82,0.00,CLR,,0.00,WeatherDisplay:10.37,2013-04-11 07:02:00,
2013-04-11 02:07:00,61.8,56.2,29.93,SSW,198,0.0,0.0,82,0.00,CLR,,0.00,WeatherDisplay:10.37,2013-04-11 07:07:00,
2013-04-11 02:12:00,61.8,56.2,29.93,SSW,198,0.0,0.0,82,0.00,CLR,,0.00,WeatherDisplay:10.37,2013-04-11 07:12:00,
2013-04-11 02:17:00,61.6,56.4,29.93,SSW,198,0.0,0.0,83,0.00,CLR,,0.00,WeatherDisplay:10.37,2013-04-11 07:17:00,
2013-04-11 02:22:00,61.6,56.4,29.93,SSW,198,0.0,0.0,83,0.00,CLR,,0.00,WeatherDisplay:10.37,2013-04-11 07:22:00,
2013-04-11 02:27:00,61.6,56.4,29.93,SSW,198,0.0,0.0,83,0.00,CLR,,0.00,WeatherDisplay:10.37,2013-04-11 07:27:00,
2013-04-11 02:32:00,61.6,56.4,29.93,SSW,198,0.0,0.0,83,0.00,CLR,,0.00,WeatherDisplay:10.37,2013-04-11 07:32:00,
2013-04-11 02:37:00,61.5,56.3,29.93,SSW,198,0.0,0.0,83,0.00,CLR,,0.00,WeatherDisplay:10.37,2013-04-11 07:37:00,
2013-04-11 02:42:00,61.5,56.3,29.93,SSW,198,0.0,0.0,83,0.00,CLR,,0.00,WeatherDisplay:10.37,2013-04-11 07:42:00,
2013-04-11 02:47:00,61.5,56.6,29.92,SSW,198,0.0,0.0,84,0.00,CLR,,0.00,WeatherDisplay:10.37,2013-04-11 07:47:00,
2013-04-11 02:52:00,61.5,56.6,29.92,SSW,198,0.0,0.0,84,0.00,CLR,,0.00,WeatherDisplay:10.37,2013-04-11 07:52:00,
2013-04-11 02:57:00,61.3,56.4,29.92,SSW,198,0.0,0.0,84,0.00,CLR,,0.00,WeatherDisplay:10.37,2013-04-11 07:57:00,
2013-04-11 03:02:00,61.3,56.4,29.92,SSW,198,0.0,0.0,84,0.00,CLR,,0.00,WeatherDisplay:10.37,2013-04-11 08:02:00,
2013-04-11 03:07:00,61.3,56.4,29.92,SSW,198,0.0,0.0,84,0.00,CLR,,0.00,WeatherDisplay:10.37,2013-04-11 08:07:00,
2013-04-11 03:12:00,61.3,56.4,29.93,SSW,198,0.0,0.0,84,0.00,CLR,,0.00,WeatherDisplay:10.37,2013-04-11 08:12:00,
2013-04-11 03:17:00,61.3,56.8,29.92,SSW,198,0.0,0.0,85,0.00,CLR,,0.00,WeatherDisplay:10.37,2013-04-11 08:17:00,
2013-04-11 03:22:00,61.3,56.8,29.93,SSW,198,0.0,0.0,85,0.00,CLR,,0.00,WeatherDisplay:10.37,2013-04-11 08:22:00,
2013-04-11 03:27:00,61.3,56.8,29.93,SSW,198,0.0,0.0,85,0.00,CLR,,0.00,WeatherDisplay:10.37,2013-04-11 08:27:00,
2013-04-11 03:32:00,61.3,56.8,29.93,SSW,198,0.0,0.0,85,0.00,CLR,,0.00,WeatherDisplay:10.37,2013-04-11 08:32:00,
2013-04-11 03:37:00,61.3,56.8,29.93,SSW,198,0.0,0.0,85,0.00,CLR,,0.00,WeatherDisplay:10.37,2013-04-11 08:37:00,
2013-04-11 03:42:00,61.5,56.9,29.93,SSW,198,0.0,0.0,85,0.00,CLR,,0.00,WeatherDisplay:10.37,2013-04-11 08:42:00,
2013-04-11 03:47:00,61.6,57.0,29.93,SSW,198,0.0,0.0,85,0.00,CLR,,0.00,WeatherDisplay:10.37,2013-04-11 08:47:00,
2013-04-11 03:52:00,61.6,57.0,29.93,SSW,198,0.0,0.0,85,0.00,CLR,,0.00,WeatherDisplay:10.37,2013-04-11 08:52:00,
2013-04-11 03:57:00,61.8,56.9,29.93,SSW,198,0.0,0.0,84,0.00,CLR,,0.00,WeatherDisplay:10.37,2013-04-11 08:57:00,
2013-04-11 04:02:00,62.0,57.1,29.93,SSW,198,0.0,0.0,84,0.00,CLR,,0.00,WeatherDisplay:10.37,2013-04-11 09:02:00,
2013-04-11 04:07:00,62.1,57.2,29.93,SSW,198,0.0,0.0,84,0.00,CLR,,0.00,WeatherDisplay:10.37,2013-04-11 09:07:00,
2013-04-11 04:12:00,62.4,57.2,29.93,SSW,198,0.0,0.0,83,0.00,CLR,,0.00,WeatherDisplay:10.37,2013-04-11 09:12:00,
2013-04-11 04:17:00,62.9,57.7,29.93,SSW,198,0.0,0.0,83,0.00,CLR,,0.00,WeatherDisplay:10.37,2013-04-11 09:17:00,
2013-04-11 04:22:00,63.2,57.6,29.93,SSW,198,0.0,0.0,82,0.00,CLR,,0.00,WeatherDisplay:10.37,2013-04-11 09:22:00,
2013-04-11 04:27:00,63.4,57.5,29.93,SSW,198,0.0,0.0,81,0.00,CLR,,0.00,WeatherDisplay:10.37,2013-04-11 09:27:00,
2013-04-11 04:32:00,63.5,57.6,29.93,SSW,198,0.0,0.0,81,0.00,CLR,,0.00,WeatherDisplay:10.37,2013-04-11 09:32:00,
2013-04-11 04:37:00,63.9,57.6,29.93,SSW,198,0.0,0.0,80,0.00,CLR,,0.00,WeatherDisplay:10.37,2013-04-11 09:37:00,
2013-04-11 04:42:00,64.0,57.7,29.93,SSW,198,0.0,0.0,80,0.00,CLR,,0.00,WeatherDisplay:10.37,2013-04-11 09:42:00,
2013-04-11 04:47:00,63.9,57.6,29.93,SSW,198,0.0,0.0,80,0.00,CLR,,0.00,WeatherDisplay:10.37,2013-04-11 09:47:00,
2013-04-11 04:52:00,63.9,57.6,29.93,SSW,198,0.0,0.0,80,0.00,CLR,,0.00,WeatherDisplay:10.37,2013-04-11 09:52:00,
2013-04-11 04:57:00,63.7,57.4,29.93,SSW,198,0.0,0.0,80,0.00,CLR,,0.00,WeatherDisplay:10.37,2013-04-11 09:57:00,
2013-04-11 05:02:00,63.5,57.2,29.93,SSW,198,0.0,0.0,80,0.00,CLR,,0.00,WeatherDisplay:10.37,2013-04-11 10:02:00,
2013-04-11 05:07:00,63.4,57.5,29.93,SSW,198,0.0,0.0,81,0.00,CLR,,0.00,WeatherDisplay:10.37,2013-04-11 10:07:00,
2013-04-11 05:12:00,63.2,57.3,29.93,SSW,198,0.0,0.0,81,0.00,CLR,,0.00,WeatherDisplay:10.37,2013-04-11 10:12:00,
2013-04-11 05:17:00,62.9,57.3,29.93,SSW,198,0.0,0.0,82,0.00,CLR,,0.00,WeatherDisplay:10.37,2013-04-11 10:17:00,
2013-04-11 05:22:00,62.7,57.1,29.93,SSW,198,0.0,0.0,82,0.00,CLR,,0.00,WeatherDisplay:10.37,2013-04-11 10:22:00,
2013-04-11 05:27:00,62.6,57.4,29.93,SSW,198,0.0,0.0,83,0.00,CLR,,0.00,WeatherDisplay:10.37,2013-04-11 10:27:00,
2013-04-11 05:33:00,62.3,57.1,29.93,SSW,198,0.0,0.0,83,0.00,CLR,,0.00,WeatherDisplay:10.37,2013-04-11 10:33:00,
2013-04-11 05:38:00,62.1,56.9,29.93,SSW,198,0.0,0.0,83,0.00,CLR,,0.00,WeatherDisplay:10.37,2013-04-11 10:38:00,
2013-04-11 05:43:00,62.0,57.1,29.93,SSW,198,0.0,0.0,84,0.00,CLR,,0.00,WeatherDisplay:10.37,2013-04-11 10:43:00,
2013-04-11 05:48:00,61.6,56.7,29.93,SSW,198,0.0,0.0,84,0.00,CLR,,0.00,WeatherDisplay:10.37,2013-04-11 10:48:00,
2013-04-11 05:53:00,61.5,56.6,29.93,SSW,198,0.0,0.0,84,0.00,CLR,,0.00,WeatherDisplay:10.37,2013-04-11 10:53:00,
2013-04-11 05:58:00,61.3,56.8,29.93,SSW,198,0.0,0.0,85,0.00,CLR,,0.00,WeatherDisplay:10.37,2013-04-11 10:58:00,
2013-04-11 06:03:00,61.2,56.7,29.93,SSW,198,0.0,0.0,85,0.00,CLR,,0.00,WeatherDisplay:10.37,2013-04-11 11:03:00,
2013-04-11 06:08:00,61.0,56.5,29.93,SSW,198,0.0,0.0,85,0.00,CLR,,0.00,WeatherDisplay:10.37,2013-04-11 11:08:00,
2013-04-11 06:13:00,60.9,56.7,29.93,SSW,198,0.0,0.0,86,0.00,CLR,,0.00,WeatherDisplay:10.37,2013-04-11 11:13:00,
2013-04-11 06:18:00,60.7,56.5,29.93,SSW,198,0.0,0.0,86,0.00,CLR,,0.00,WeatherDisplay:10.37,2013-04-11 11:18:00,
2013-04-11 06:23:00,60.5,56.3,29.93,SSW,198,0.0,0.0,86,0.00,CLR,,0.00,WeatherDisplay:10.37,2013-04-11 11:23:00,
2013-04-11 06:28:00,60.5,56.3,29.93,SSW,198,0.0,0.0,86,0.00,CLR,,0.00,WeatherDisplay:10.37,2013-04-11 11:28:00,
2013-04-11 06:33:00,60.4,56.5,29.94,SSW,198,0.0,0.0,87,0.00,CLR,,0.00,WeatherDisplay:10.37,2013-04-11 11:33:00,
2013-04-11 06:38:00,60.2,56.3,29.94,SSW,198,0.0,0.0,87,0.00,CLR,,0.00,WeatherDisplay:10.37,2013-04-11 11:38:00,
2013-04-11 06:43:00,60.1,56.2,29.94,SSW,198,0.0,0.0,87,0.00,CLR,,0.00,WeatherDisplay:10.37,2013-04-11 11:43:00,
2013-04-11 06:48:00,60.1,56.2,29.94,SSW,198,0.0,0.0,87,0.00,CLR,,0.00,WeatherDisplay:10.37,2013-04-11 11:48:00,
2013-04-11 06:53:00,60.1,56.2,29.94,SSW,198,0.0,0.0,87,0.00,CLR,,0.00,WeatherDisplay:10.37,2013-04-11 11:53:00,
2013-04-11 06:58:00,60.1,56.5,29.94,SSW,198,0.0,0.0,88,0.00,CLR,,0.00,WeatherDisplay:10.37,2013-04-11 11:58:00,
2013-04-11 07:03:00,60.2,56.6,29.94,SSW,198,0.0,0.0,88,0.00,CLR,,0.00,WeatherDisplay:10.37,2013-04-11 12:03:00,
2013-04-11 07:08:00,60.4,56.8,29.95,SSW,198,0.0,0.0,88,0.00,CLR,,0.00,WeatherDisplay:10.37,2013-04-11 12:08:00,
2013-04-11 07:13:00,60.5,56.9,29.95,SSW,198,0.0,0.0,88,0.00,CLR,,0.00,WeatherDisplay:10.37,2013-04-11 12:13:00,
2013-04-11 07:18:00,60.7,57.1,29.95,SSW,198,0.0,0.0,88,0.00,CLR,,0.00,WeatherDisplay:10.37,2013-04-11 12:18:00,
2013-04-11 07:23:00,60.9,57.3,29.95,SSW,198,0.0,0.0,88,0.00,CLR,,0.00,WeatherDisplay:10.37,2013-04-11 12:23:00,
2013-04-11 07:28:00,61.2,57.6,29.95,SSW,198,0.0,0.0,88,0.00,CLR,,0.00,WeatherDisplay:10.37,2013-04-11 12:28:00,
2013-04-11 07:33:00,61.6,57.7,29.95,SSW,198,0.0,0.0,87,0.00,CLR,,0.00,WeatherDisplay:10.37,2013-04-11 12:33:00,
2013-04-11 07:38:00,62.0,58.1,29.95,SSW,198,0.0,0.0,87,0.00,CLR,,0.00,WeatherDisplay:10.37,2013-04-11 12:38:00,
2013-04-11 07:43:00,62.3,58.1,29.95,SSW,198,0.0,0.0,86,0.00,CLR,,0.00,WeatherDisplay:10.37,2013-04-11 12:43:00,
2013-04-11 07:48:00,62.9,58.6,29.94,SSW,198,0.0,0.0,86,0.00,CLR,,0.00,WeatherDisplay:10.37,2013-04-11 12:48:00,
2013-04-11 07:53:00,63.7,58.8,29.94,SSW,198,0.0,0.0,84,0.00,CLR,,0.00,WeatherDisplay:10.37,2013-04-11 12:53:00,
2013-04-11 07:58:00,64.5,59.2,29.94,SSW,198,0.0,0.0,83,0.00,CLR,,0.00,WeatherDisplay:10.37,2013-04-11 12:58:00,
2013-04-11 08:03:00,65.8,58.4,29.94,SSW,198,0.0,0.0,77,0.00,CLR,,0.00,WeatherDisplay:10.37,2013-04-11 13:03:00,
2013-04-11 08:08:00,67.3,58.3,29.94,SSW,205,1.1,0.0,73,0.00,CLR,,0.00,WeatherDisplay:10.37,2013-04-11 13:08:00,
2013-04-11 08:13:00,68.6,58.4,29.94,SSW,205,0.0,0.0,70,0.00,CLR,,0.00,WeatherDisplay:10.37,2013-04-11 13:13:00,
2013-04-11 08:18:00,69.4,58.4,29.94,SSW,200,0.0,0.1,68,0.00,CLR,,0.00,WeatherDisplay:10.37,2013-04-11 13:18:00,
2013-04-11 08:24:00,69.6,58.2,29.94,SSW,201,0.0,0.1,67,0.00,CLR,,0.00,WeatherDisplay:10.37,2013-04-11 13:24:00,
2013-04-11 08:29:00,69.6,59.0,29.94,SSW,201,0.0,0.0,69,0.00,CLR,,0.00,WeatherDisplay:10.37,2013-04-11 13:29:00,
2013-04-11 08:34:00,69.6,58.2,29.93,SSW,201,0.0,0.0,67,0.00,CLR,,0.00,WeatherDisplay:10.37,2013-04-11 13:34:00,
2013-04-11 08:39:00,69.4,58.4,29.94,SSW,201,1.1,0.0,68,0.00,CLR,,0.00,WeatherDisplay:10.37,2013-04-11 13:39:00,
2013-04-11 08:44:00,69.6,58.6,29.94,SSW,202,0.0,0.0,68,0.00,CLR,,0.00,WeatherDisplay:10.37,2013-04-11 13:44:00,
2013-04-11 08:49:00,69.9,58.4,29.94,SSW,202,1.1,0.0,67,0.00,CLR,,0.00,WeatherDisplay:10.37,2013-04-11 13:49:00,
2013-04-11 08:54:00,70.6,59.1,29.94,SW,215,0.0,0.1,67,0.00,CLR,,0.00,WeatherDisplay:10.37,2013-04-11 13:54:00,
2013-04-11 08:59:00,70.9,58.1,29.93,South,184,3.5,3.5,64,0.00,CLR,,0.00,WeatherDisplay:10.37,2013-04-11 13:59:00,
2013-04-11 09:04:00,71.3,58.5,29.93,WSW,245,4.6,4.6,64,0.00,CLR,,0.00,WeatherDisplay:10.37,2013-04-11 14:04:00,
2013-04-11 09:09:00,71.8,59.0,29.93,South,190,1.1,1.1,64,0.00,CLR,,0.00,WeatherDisplay:10.37,2013-04-11 14:09:00,
2013-04-11 09:14:00,72.1,58.8,29.93,WSW,254,0.0,0.2,63,0.00,CLR,,0.00,WeatherDisplay:10.37,2013-04-11 14:14:00,
2013-04-11 09:19:00,72.7,59.8,29.93,WSW,255,0.0,0.0,64,0.00,CLR,,0.00,WeatherDisplay:10.37,2013-04-11 14:19:00,
2013-04-11 09:24:00,73.2,59.4,29.93,WSW,240,1.1,0.0,62,0.00,CLR,,0.00,WeatherDisplay:10.37,2013-04-11 14:24:00,
2013-04-11 09:29:00,73.5,60.1,29.93,SSW,198,0.0,0.0,63,0.00,CLR,,0.00,WeatherDisplay:10.37,2013-04-11 14:29:00,
2013-04-11 09:34:00,74.0,59.2,29.92,SSW,205,3.5,3.5,60,0.00,CLR,,0.00,WeatherDisplay:10.37,2013-04-11 14:34:00,
2013-04-11 09:39:00,73.9,59.6,29.93,SSE,155,1.0,0.0,61,0.00,CLR,,0.00,WeatherDisplay:10.37,2013-04-11 14:39:00,
2013-04-11 09:44:00,73.9,59.1,29.92,WSW,244,1.1,0.0,60,0.00,CLR,,0.00,WeatherDisplay:10.37,2013-04-11 14:44:00,
2013-04-11 09:49:00,74.2,58.9,29.92,SW,223,4.0,4.0,59,0.00,CLR,,0.00,WeatherDisplay:10.37,2013-04-11 14:49:00,
2013-04-11 09:54:00,74.7,58.9,29.92,SW,229,3.5,3.5,58,0.00,CLR,,0.00,WeatherDisplay:10.37,2013-04-11 14:54:00,
2013-04-11 09:59:00,74.7,59.4,29.92,SSW,207,3.5,3.5,59,0.00,CLR,,0.00,WeatherDisplay:10.37,2013-04-11 14:59:00,
2013-04-11 10:04:00,74.7,59.4,29.92,South,187,1.1,1.1,59,0.00,CLR,,0.00,WeatherDisplay:10.37,2013-04-11 15:04:00,
2013-04-11 10:09:00,74.7,58.9,29.92,South,175,1.1,1.1,58,0.00,CLR,,0.00,WeatherDisplay:10.37,2013-04-11 15:09:00,
2013-04-11 10:14:00,75.3,59.0,29.91,SSW,209,2.3,2.3,57,0.00,CLR,,0.00,WeatherDisplay:10.37,2013-04-11 15:14:00,
2013-04-11 10:19:00,75.4,59.1,29.91,SE,146,9.2,9.2,57,0.00,CLR,,0.00,WeatherDisplay:10.37,2013-04-11 15:19:00,
2013-04-11 10:24:00,75.4,60.1,29.92,South,187,3.5,3.5,59,0.00,CLR,,0.00,WeatherDisplay:10.37,2013-04-11 15:24:00,
2013-04-11 10:29:00,74.9,59.6,29.92,South,187,4.6,4.6,59,0.00,CLR,,0.00,WeatherDisplay:10.37,2013-04-11 15:29:00,
2013-04-11 10:34:00,74.6,60.3,29.92,NW,306,3.5,3.5,61,0.00,CLR,,0.00,WeatherDisplay:10.37,2013-04-11 15:34:00,
2013-04-11 10:39:00,74.0,60.2,29.92,SSW,200,5.8,5.8,62,0.00,CLR,,0.00,WeatherDisplay:10.37,2013-04-11 15:39:00,
2013-04-11 10:44:00,73.9,61.0,29.92,South,188,1.1,1.1,64,0.00,CLR,,0.00,WeatherDisplay:10.37,2013-04-11 15:44:00,
2013-04-11 10:49:00,73.7,60.3,29.91,SSE,155,5.8,5.8,63,0.00,CLR,,0.00,WeatherDisplay:10.37,2013-04-11 15:49:00,
2013-04-11 10:54:00,73.7,60.3,29.91,South,180,3.5,3.5,63,0.00,CLR,,0.00,WeatherDisplay:10.37,2013-04-11 15:54:00,
2013-04-11 10:59:00,74.0,60.6,29.91,SW,218,3.5,3.5,63,0.00,CLR,,0.00,WeatherDisplay:10.37,2013-04-11 15:59:00,
2013-04-11 11:04:00,74.0,60.6,29.91,WSW,245,2.3,0.0,63,0.00,CLR,,0.00,WeatherDisplay:10.37,2013-04-11 16:04:00,
2013-04-11 11:09:00,74.0,60.6,29.91,SSW,195,3.5,3.5,63,0.00,CLR,,0.00,WeatherDisplay:10.37,2013-04-11 16:09:00,
2013-04-11 11:14:00,74.2,60.3,29.90,SW,223,3.5,3.5,62,0.00,CLR,,0.00,WeatherDisplay:10.37,2013-04-11 16:14:00,
2013-04-11 11:19:00,74.4,60.1,29.90,SSW,197,4.6,4.6,61,0.00,CLR,,0.00,WeatherDisplay:10.37,2013-04-11 16:19:00,
2013-04-11 11:24:00,74.4,60.1,29.90,South,180,9.2,9.2,61,0.00,CLR,,0.00,WeatherDisplay:10.37,2013-04-11 16:24:00,
2013-04-11 11:29:00,74.9,60.5,29.90,South,182,2.3,2.3,61,0.00,CLR,,0.00,WeatherDisplay:10.37,2013-04-11 16:29:00,
2013-04-11 11:34:00,75.3,59.5,29.90,SSE,151,3.5,3.5,58,0.00,CLR,,0.00,WeatherDisplay:10.37,2013-04-11 16:34:00,
2013-04-11 11:39:00,75.6,60.7,29.89,SW,219,1.1,0.0,60,0.00,CLR,,0.00,WeatherDisplay:10.37,2013-04-11 16:39:00,
2013-04-11 11:44:00,75.8,60.4,29.89,SSW,196,2.3,2.3,59,0.00,CLR,,0.00,WeatherDisplay:10.37,2013-04-11 16:44:00,
2013-04-11 11:49:00,75.6,59.8,29.88,SW,224,3.5,3.5,58,0.00,CLR,,0.00,WeatherDisplay:10.37,2013-04-11 16:49:00,
2013-04-11 11:54:00,75.4,60.5,29.88,SW,221,3.5,3.5,60,0.00,CLR,,0.00,WeatherDisplay:10.37,2013-04-11 16:54:00,
2013-04-11 11:59:00,75.1,60.3,29.88,West,270,1.1,1.1,60,0.00,CLR,,0.00,WeatherDisplay:10.37,2013-04-11 16:59:00,
2013-04-11 12:04:00,74.9,60.5,29.88,SSE,168,0.0,0.0,61,0.00,CLR,,0.00,WeatherDisplay:10.37,2013-04-11 17:04:00,
2013-04-11 12:09:00,74.9,60.5,29.87,SW,229,2.3,0.0,61,0.00,CLR,,0.00,WeatherDisplay:10.37,2013-04-11 17:09:00,
2013-04-11 12:14:00,74.7,60.4,29.87,West,265,2.3,2.3,61,0.00,CLR,,0.00,WeatherDisplay:10.37,2013-04-11 17:14:00,
2013-04-11 12:19:00,74.7,60.8,29.86,South,170,3.0,3.0,62,0.00,CLR,,0.00,WeatherDisplay:10.37,2013-04-11 17:19:00,
2013-04-11 12:24:00,74.6,60.7,29.86,SW,229,4.6,4.6,62,0.00,CLR,,0.00,WeatherDisplay:10.37,2013-04-11 17:24:00,
2013-04-11 12:29:00,74.7,59.9,29.85,WSW,237,3.5,3.5,60,0.00,CLR,,0.00,WeatherDisplay:10.37,2013-04-11 17:29:00,
2013-04-11 12:34:00,75.1,60.3,29.85,SW,236,3.5,3.5,60,0.00,CLR,,0.00,WeatherDisplay:10.37,2013-04-11 17:34:00,
2013-04-11 12:39:00,75.6,60.7,29.84,ESE,111,3.5,3.5,60,0.00,CLR,,0.00,WeatherDisplay:10.37,2013-04-11 17:39:00,
2013-04-11 12:44:00,76.1,61.2,29.84,SSW,211,3.5,3.5,60,0.00,CLR,,0.00,WeatherDisplay:10.37,2013-04-11 17:44:00,
2013-04-11 12:49:00,76.3,60.4,29.83,SE,136,3.5,3.5,58,0.00,CLR,,0.00,WeatherDisplay:10.37,2013-04-11 17:49:00,
2013-04-11 12:54:00,76.3,60.9,29.83,SW,224,3.5,3.5,59,0.00,CLR,,0.00,WeatherDisplay:10.37,2013-04-11 17:54:00,
2013-04-11 12:59:00,76.3,60.4,29.83,WSW,243,3.5,3.5,58,0.00,CLR,,0.00,WeatherDisplay:10.37,2013-04-11 17:59:00,
2013-04-11 13:04:00,76.1,60.7,29.82,SSW,212,3.5,3.5,59,0.00,CLR,,0.00,WeatherDisplay:10.37,2013-04-11 18:04:00,
2013-04-11 13:09:00,76.1,60.2,29.82,SSE,153,4.6,4.6,58,0.00,CLR,,0.00,WeatherDisplay:10.37,2013-04-11 18:09:00,
2013-04-11 13:14:00,76.0,60.6,29.81,NNE,12,4.6,4.6,59,0.00,CLR,,0.00,WeatherDisplay:10.37,2013-04-11 18:14:00,
2013-04-11 13:19:00,75.8,60.4,29.81,WSW,257,1.1,1.1,59,0.00,CLR,,0.00,WeatherDisplay:10.37,2013-04-11 18:19:00,
2013-04-11 13:24:00,76.0,61.1,29.81,South,181,1.1,1.1,60,0.00,CLR,,0.00,WeatherDisplay:10.37,2013-04-11 18:24:00,
2013-04-11 13:29:00,76.3,60.9,29.80,SSW,209,4.6,4.6,59,0.00,CLR,,0.00,WeatherDisplay:10.37,2013-04-11 18:29:00,
2013-04-11 13:34:00,76.5,60.6,29.80,WSW,238,4.6,4.6,58,0.00,CLR,,0.00,WeatherDisplay:10.37,2013-04-11 18:34:00,
2013-04-11 13:39:00,76.7,61.8,29.79,SSW,207,1.0,1.0,60,0.00,CLR,,0.00,WeatherDisplay:10.37,2013-04-11 18:39:00,
2013-04-11 13:44:00,76.7,60.3,29.79,SW,232,9.2,9.2,57,0.00,CLR,,0.00,WeatherDisplay:10.37,2013-04-11 18:44:00,
2013-04-11 13:49:00,77.2,61.3,29.78,SSE,167,1.1,1.1,58,0.00,CLR,,0.00,WeatherDisplay:10.37,2013-04-11 18:49:00,
2013-04-11 13:54:00,78.1,61.6,29.77,SE,138,2.3,0.0,57,0.00,CLR,,0.00,WeatherDisplay:10.37,2013-04-11 18:54:00,
2013-04-11 13:59:00,78.6,61.1,29.77,SW,220,1.1,0.0,55,0.00,CLR,,0.00,WeatherDisplay:10.37,2013-04-11 18:59:00,
2013-04-11 14:05:00,78.8,61.8,29.76,SW,216,3.0,3.0,56,0.00,CLR,,0.00,WeatherDisplay:10.37,2013-04-11 19:05:00,
2013-04-11 14:10:00,78.6,60.0,29.76,SW,216,4.6,4.6,53,0.00,CLR,,0.00,WeatherDisplay:10.37,2013-04-11 19:10:00,
2013-04-11 14:15:00,78.6,60.6,29.76,SSW,201,2.0,6.0,54,0.00,CLR,,0.00,WeatherDisplay:10.37,2013-04-11 19:15:00,
2013-04-11 14:20:00,78.5,61.0,29.76,WSW,248,2.3,2.3,55,0.00,CLR,,0.00,WeatherDisplay:10.37,2013-04-11 19:20:00,
2013-04-11 14:25:00,78.5,61.5,29.75,SSW,198,0.0,2.0,56,0.00,CLR,,0.00,WeatherDisplay:10.37,2013-04-11 19:25:00,
2013-04-11 14:30:00,78.5,61.0,29.75,SSW,202,3.0,3.0,55,0.00,CLR,,0.00,WeatherDisplay:10.37,2013-04-11 19:30:00,
2013-04-11 14:35:00,78.5,60.5,29.75,SSW,199,2.0,10.0,54,0.00,CLR,,0.00,WeatherDisplay:10.37,2013-04-11 19:35:00,
2013-04-11 14:40:00,78.3,60.8,29.75,SW,227,3.5,3.5,55,0.00,CLR,,0.00,WeatherDisplay:10.37,2013-04-11 19:40:00,
2013-04-11 14:45:00,78.3,60.8,29.74,SW,234,3.5,3.5,55,0.00,CLR,,0.00,WeatherDisplay:10.37,2013-04-11 19:45:00,
2013-04-11 14:50:00,77.9,60.4,29.75,SSW,194,3.5,3.5,55,0.00,CLR,,0.00,WeatherDisplay:10.37,2013-04-11 19:50:00,
2013-04-11 14:55:00,77.6,60.7,29.75,SSW,210,2.0,12.0,56,0.00,CLR,,0.00,WeatherDisplay:10.37,2013-04-11 19:55:00,
2013-04-11 15:00:00,77.4,61.4,29.75,SSW,208,1.0,7.0,58,0.00,CLR,,0.00,WeatherDisplay:10.37,2013-04-11 20:00:00,
2013-04-11 15:05:00,77.0,61.1,29.75,WSW,240,0.0,10.0,58,0.00,CLR,,0.00,WeatherDisplay:10.37,2013-04-11 20:05:00,
2013-04-11 15:10:00,76.8,60.9,29.75,SSW,194,5.8,5.8,58,0.00,CLR,,0.00,WeatherDisplay:10.37,2013-04-11 20:10:00,
2013-04-11 15:15:00,76.7,61.3,29.75,WSW,240,1.1,0.0,59,0.00,CLR,,0.00,WeatherDisplay:10.37,2013-04-11 20:15:00,
2013-04-11 15:20:00,76.5,61.6,29.74,SSW,200,1.1,1.6,60,0.00,CLR,,0.00,WeatherDisplay:10.37,2013-04-11 20:20:00,
2013-04-11 15:25:00,76.3,61.4,29.74,SW,220,1.1,1.1,60,0.00,CLR,,0.00,WeatherDisplay:10.37,2013-04-11 20:25:00,
2013-04-11 15:30:00,76.3,61.4,29.74,SW,227,0.0,4.0,60,0.00,CLR,,0.00,WeatherDisplay:10.37,2013-04-11 20:30:00,
2013-04-11 15:35:00,76.3,61.9,29.74,SSW,205,3.5,3.5,61,0.00,CLR,,0.00,WeatherDisplay:10.37,2013-04-11 20:35:00,
2013-04-11 15:40:00,76.1,61.7,29.73,ESE,115,1.1,1.1,61,0.00,CLR,,0.00,WeatherDisplay:10.37,2013-04-11 20:40:00,
2013-04-11 15:45:00,76.1,61.7,29.73,SSW,204,0.0,0.0,61,0.00,CLR,,0.00,WeatherDisplay:10.37,2013-04-11 20:45:00,
2013-04-11 15:50:00,76.0,61.1,29.73,SW,221,6.9,6.9,60,0.00,CLR,,0.00,WeatherDisplay:10.37,2013-04-11 20:50:00,
2013-04-11 15:55:00,76.0,62.0,29.73,SW,225,0.0,0.1,62,0.00,CLR,,0.00,WeatherDisplay:10.37,2013-04-11 20:55:00,
2013-04-11 16:00:00,75.6,63.0,29.73,South,184,5.8,5.8,65,0.00,CLR,,0.00,WeatherDisplay:10.37,2013-04-11 21:00:00,
2013-04-11 16:05:00,74.9,64.5,29.72,South,184,0.0,0.0,70,0.00,CLR,,0.00,WeatherDisplay:10.37,2013-04-11 21:05:00,
2013-04-11 16:10:00,74.4,64.8,29.72,South,184,0.0,0.0,72,0.00,CLR,,0.00,WeatherDisplay:10.37,2013-04-11 21:10:00,
2013-04-11 16:15:00,73.7,64.1,29.72,South,190,0.0,0.0,72,0.00,CLR,,0.00,WeatherDisplay:10.37,2013-04-11 21:15:00,
2013-04-11 16:20:00,73.3,62.9,29.71,SSW,208,0.0,0.0,70,0.00,CLR,,0.00,WeatherDisplay:10.37,2013-04-11 21:20:00,
2013-04-11 16:25:00,73.3,62.9,29.71,SSW,205,0.0,0.0,70,0.00,CLR,,0.00,WeatherDisplay:10.37,2013-04-11 21:25:00,
2013-04-11 16:30:00,73.3,63.7,29.70,SSW,205,0.0,0.0,72,0.00,CLR,,0.00,WeatherDisplay:10.37,2013-04-11 21:30:00,
2013-04-11 16:35:00,73.3,63.7,29.70,SSW,205,0.0,0.0,72,0.00,CLR,,0.00,WeatherDisplay:10.37,2013-04-11 21:35:00,
2013-04-11 16:40:00,73.2,63.2,29.70,SSW,205,0.0,0.0,71,0.00,CLR,,0.00,WeatherDisplay:10.37,2013-04-11 21:40:00,
2013-04-11 16:45:00,73.2,63.6,29.70,SSW,205,0.0,0.0,72,0.00,CLR,,0.00,WeatherDisplay:10.37,2013-04-11 21:45:00,
2013-04-11 16:50:00,73.0,63.0,29.69,SSW,205,0.0,0.0,71,0.00,CLR,,0.00,WeatherDisplay:10.37,2013-04-11 21:50:00,
2013-04-11 16:55:00,73.0,63.4,29.68,SSW,205,0.0,0.0,72,0.00,CLR,,0.00,WeatherDisplay:10.37,2013-04-11 21:55:00,
2013-04-11 17:00:00,72.7,65.1,29.70,SSW,205,0.0,0.0,77,0.01,RA,,0.02,WeatherDisplay:10.37,2013-04-11 22:00:00,
2013-04-11 17:05:00,72.0,65.5,29.72,SSW,205,0.0,0.0,80,0.03,RA,,0.03,WeatherDisplay:10.37,2013-04-11 22:05:00,
2013-04-11 17:10:00,71.3,65.9,29.72,SSW,205,0.0,0.0,83,0.05,RA,,0.06,WeatherDisplay:10.37,2013-04-11 22:10:00,
2013-04-11 17:15:00,70.4,66.0,29.73,SSW,205,1.1,0.0,86,0.07,RA,,0.07,WeatherDisplay:10.37,2013-04-11 22:15:00,
2013-04-11 17:20:00,69.8,65.8,29.74,West,263,3.5,3.5,87,0.09,RA,,0.10,WeatherDisplay:10.37,2013-04-11 22:20:00,
2013-04-11 17:25:00,69.1,65.7,29.76,West,271,3.5,3.5,89,0.12,RA,,0.12,WeatherDisplay:10.37,2013-04-11 22:25:00,
2013-04-11 17:30:00,68.4,65.4,29.75,West,280,3.5,3.5,90,0.15,RA,,0.16,WeatherDisplay:10.37,2013-04-11 22:30:00,
2013-04-11 17:35:00,67.8,65.1,29.71,WNW,296,6.0,6.0,91,0.18,RA,,0.19,WeatherDisplay:10.37,2013-04-11 22:35:00,
2013-04-11 17:40:00,67.3,64.9,29.72,SW,217,0.0,0.0,92,0.21,RA,,0.22,WeatherDisplay:10.37,2013-04-11 22:40:00,
2013-04-11 17:45:00,66.8,64.1,29.72,West,271,0.0,0.0,91,0.24,RA,,0.24,WeatherDisplay:10.37,2013-04-11 22:45:00,
2013-04-11 17:50:00,66.4,64.0,29.74,West,275,0.0,0.1,92,0.27,RA,,0.27,WeatherDisplay:10.37,2013-04-11 22:50:00,
2013-04-11 17:55:00,66.3,63.9,29.75,West,275,0.0,0.0,92,0.29,RA,,0.30,WeatherDisplay:10.37,2013-04-11 22:55:00,
2013-04-11 18:00:00,66.3,63.9,29.74,West,270,3.5,3.5,92,0.30,RA,,0.32,WeatherDisplay:10.37,2013-04-11 23:00:00,
2013-04-11 18:05:00,66.3,63.9,29.74,West,268,1.1,1.1,92,0.30,RA,,0.33,WeatherDisplay:10.37,2013-04-11 23:05:00,
2013-04-11 18:10:00,66.3,63.6,29.75,WNW,300,3.5,3.5,91,0.30,RA,,0.35,WeatherDisplay:10.37,2013-04-11 23:10:00,
2013-04-11 18:15:00,66.1,63.4,29.75,WNW,296,3.5,3.5,91,0.29,RA,,0.36,WeatherDisplay:10.37,2013-04-11 23:15:00,
2013-04-11 18:20:00,65.6,62.6,29.75,WSW,239,1.1,0.0,90,0.29,RA,,0.38,WeatherDisplay:10.37,2013-04-11 23:20:00,
2013-04-11 18:25:00,65.2,62.2,29.76,WNW,283,2.3,2.3,90,0.27,RA,,0.40,WeatherDisplay:10.37,2013-04-11 23:25:00,
2013-04-11 18:30:00,64.8,61.5,29.76,WNW,301,4.6,4.6,89,0.25,RA,,0.41,WeatherDisplay:10.37,2013-04-11 23:30:00,
2013-04-11 18:35:00,64.3,61.0,29.77,North,349,6.9,6.9,89,0.24,RA,,0.42,WeatherDisplay:10.37,2013-04-11 23:35:00,
2013-04-11 18:40:00,64.2,61.2,29.78,North,349,0.0,0.0,90,0.22,RA,,0.43,WeatherDisplay:10.37,2013-04-11 23:40:00,
2013-04-11 18:45:00,63.7,60.4,29.78,NNE,33,3.5,3.5,89,0.20,RA,,0.44,WeatherDisplay:10.37,2013-04-11 23:45:00,
2013-04-11 18:50:00,63.4,60.1,29.79,WNW,302,1.1,0.0,89,0.18,RA,,0.45,WeatherDisplay:10.37,2013-04-11 23:50:00,
2013-04-11 18:55:00,62.9,59.9,29.78,WNW,302,0.0,0.0,90,0.17,RA,,0.46,WeatherDisplay:10.37,2013-04-11 23:55:00,
2013-04-11 19:00:00,62.7,59.7,29.78,WNW,302,0.0,0.0,90,0.16,RA,,0.47,WeatherDisplay:10.37,2013-04-12 00:00:00,
2013-04-11 19:05:00,62.4,59.7,29.77,WNW,302,0.0,0.0,91,0.15,RA,,0.48,WeatherDisplay:10.37,2013-04-12 00:05:00,
2013-04-11 19:10:00,62.1,59.4,29.77,NE,37,4.6,4.6,91,0.14,RA,,0.49,WeatherDisplay:10.37,2013-04-12 00:10:00,
2013-04-11 19:15:00,62.0,59.6,29.76,NE,37,1.1,0.0,92,0.14,RA,,0.50,WeatherDisplay:10.37,2013-04-12 00:15:00,
2013-04-11 19:20:00,61.8,59.5,29.77,NE,37,0.0,0.0,92,0.12,RA,,0.50,WeatherDisplay:10.37,2013-04-12 00:20:00,
2013-04-11 19:25:00,61.8,59.5,29.76,NE,37,2.0,2.0,92,0.12,RA,,0.51,WeatherDisplay:10.37,2013-04-12 00:25:00,
2013-04-11 19:30:00,61.6,59.6,29.77,SSW,213,0.0,0.0,93,0.12,RA,,0.52,WeatherDisplay:10.37,2013-04-12 00:30:00,
2013-04-11 19:35:00,61.6,59.6,29.76,SSW,213,0.0,0.0,93,0.10,RA,,0.52,WeatherDisplay:10.37,2013-04-12 00:35:00,
2013-04-11 19:40:00,61.6,59.9,29.77,SSW,213,0.0,0.0,94,0.10,RA,,0.53,WeatherDisplay:10.37,2013-04-12 00:40:00,
2013-04-11 19:45:00,61.6,59.9,29.74,NNE,26,3.5,3.5,94,0.10,RA,,0.54,WeatherDisplay:10.37,2013-04-12 00:45:00,
2013-04-11 19:50:00,61.5,59.8,29.72,South,171,1.1,1.1,94,0.09,RA,,0.54,WeatherDisplay:10.37,2013-04-12 00:50:00,
2013-04-11 19:55:00,61.3,59.6,29.72,NE,43,0.0,0.0,94,0.09,RA,,0.55,WeatherDisplay:10.37,2013-04-12 00:55:00,
2013-04-11 20:01:00,61.2,59.5,29.71,NE,43,0.0,0.0,94,0.09,RA,,0.56,WeatherDisplay:10.37,2013-04-12 01:01:00,
2013-04-11 20:06:00,61.2,59.5,29.72,NE,43,1.1,0.0,94,0.08,RA,,0.56,WeatherDisplay:10.37,2013-04-12 01:06:00,
2013-04-11 20:11:00,61.2,59.5,29.75,NE,43,1.1,1.1,94,0.08,RA,,0.57,WeatherDisplay:10.37,2013-04-12 01:11:00,
2013-04-11 20:16:00,61.2,59.5,29.76,NE,43,0.0,0.0,94,0.07,RA,,0.57,WeatherDisplay:10.37,2013-04-12 01:16:00,
2013-04-11 20:21:00,61.2,59.5,29.75,NE,43,1.1,0.0,94,0.08,RA,,0.58,WeatherDisplay:10.37,2013-04-12 01:21:00,
2013-04-11 20:26:00,61.3,59.6,29.75,NE,43,0.0,0.0,94,0.07,RA,,0.58,WeatherDisplay:10.37,2013-04-12 01:26:00,
2013-04-11 20:31:00,61.3,59.6,29.76,NE,43,0.0,0.0,94,0.07,RA,,0.59,WeatherDisplay:10.37,2013-04-12 01:31:00,
2013-04-11 20:36:00,61.3,59.6,29.75,NE,43,0.0,0.0,94,0.07,RA,,0.59,WeatherDisplay:10.37,2013-04-12 01:36:00,
2013-04-11 20:41:00,61.3,59.9,29.76,NE,43,0.0,0.0,95,0.07,RA,,0.60,WeatherDisplay:10.37,2013-04-12 01:41:00,
2013-04-11 20:46:00,61.3,59.9,29.76,NE,43,0.0,0.0,95,0.06,RA,,0.60,WeatherDisplay:10.37,2013-04-12 01:46:00,
2013-04-11 20:51:00,61.3,59.9,29.75,NE,43,0.0,0.0,95,0.07,RA,,0.61,WeatherDisplay:10.37,2013-04-12 01:51:00,
2013-04-11 20:56:00,61.3,59.9,29.75,NE,43,0.0,0.0,95,0.06,RA,,0.61,WeatherDisplay:10.37,2013-04-12 01:56:00,
2013-04-11 21:02:00,61.3,59.9,29.74,NE,43,0.0,0.0,95,0.06,RA,,0.62,WeatherDisplay:10.37,2013-04-12 02:02:00,
2013-04-11 21:07:00,61.5,60.1,29.72,NE,43,0.0,0.0,95,0.06,RA,,0.62,WeatherDisplay:10.37,2013-04-12 02:07:00,
2013-04-11 21:12:00,61.3,59.9,29.72,NE,43,1.1,0.0,95,0.06,RA,,0.63,WeatherDisplay:10.37,2013-04-12 02:12:00,
2013-04-11 21:17:00,61.3,59.9,29.72,NE,43,0.0,0.0,95,0.06,RA,,0.63,WeatherDisplay:10.37,2013-04-12 02:17:00,
2013-04-11 21:22:00,61.2,59.8,29.71,NE,43,0.0,0.0,95,0.06,RA,,0.64,WeatherDisplay:10.37,2013-04-12 02:22:00,
2013-04-11 21:27:00,61.2,59.8,29.71,NE,43,0.0,0.0,95,0.06,RA,,0.64,WeatherDisplay:10.37,2013-04-12 02:27:00,
2013-04-11 21:32:00,61.3,59.9,29.71,NE,43,0.0,0.0,95,0.05,,,0.64,WeatherDisplay:10.37,2013-04-12 02:32:00,
2013-04-11 21:37:00,61.3,59.9,29.72,NE,43,0.0,0.0,95,0.04,CLR,,0.64,WeatherDisplay:10.37,2013-04-12 02:37:00,
2013-04-11 21:42:00,61.5,60.1,29.71,ENE,78,2.3,2.3,95,0.04,CLR,,0.64,WeatherDisplay:10.37,2013-04-12 02:42:00,
2013-04-11 21:47:00,61.5,60.3,29.68,ENE,78,0.0,0.0,96,0.05,RA,,0.65,WeatherDisplay:10.37,2013-04-12 02:47:00,
2013-04-11 21:52:00,61.5,60.3,29.65,NE,40,0.0,0.6,96,0.04,RA,,0.65,WeatherDisplay:10.37,2013-04-12 02:52:00,
2013-04-11 21:57:00,61.5,60.1,29.61,NNE,26,4.0,4.0,95,0.04,,,0.65,WeatherDisplay:10.37,2013-04-12 02:57:00,
2013-04-11 22:02:00,61.6,60.4,29.59,NNW,336,1.1,1.4,96,0.03,CLR,,0.65,WeatherDisplay:10.37,2013-04-12 03:02:00,
2013-04-11 22:07:00,61.8,60.6,29.60,NW,319,0.0,0.0,96,0.04,RA,,0.66,WeatherDisplay:10.37,2013-04-12 03:07:00,
2013-04-11 22:12:00,62.1,60.9,29.66,WNW,286,4.0,4.0,96,0.03,RA,,0.66,WeatherDisplay:10.37,2013-04-12 03:12:00,
2013-04-11 22:17:00,62.4,60.9,29.68,West,271,5.0,5.0,95,0.04,RA,,0.67,WeatherDisplay:10.37,2013-04-12 03:17:00,
2013-04-11 22:22:00,62.7,61.2,29.68,WSW,243,10.4,10.4,95,0.03,RA,,0.67,WeatherDisplay:10.37,2013-04-12 03:22:00,
2013-04-11 22:27:00,63.2,60.8,29.69,West,261,1.1,0.0,92,0.03,,,0.67,WeatherDisplay:10.37,2013-04-12 03:27:00,
2013-04-11 22:32:00,63.4,61.0,29.69,WNW,302,3.5,3.5,92,0.03,CLR,,0.67,WeatherDisplay:10.37,2013-04-12 03:32:00,
2013-04-11 22:37:00,63.4,61.0,29.70,SE,130,0.0,0.0,92,0.04,RA,,0.68,WeatherDisplay:10.37,2013-04-12 03:37:00,
2013-04-11 22:42:00,63.4,60.7,29.70,SSE,158,4.0,4.0,91,0.04,RA,,0.68,WeatherDisplay:10.37,2013-04-12 03:42:00,
2013-04-11 22:47:00,63.5,60.8,29.69,SW,223,0.0,0.0,91,0.03,CLR,,0.69,WeatherDisplay:10.37,2013-04-12 03:47:00,
2013-04-11 22:52:00,63.5,60.8,29.70,SSE,153,3.5,3.5,91,0.04,RA,,0.69,WeatherDisplay:10.37,2013-04-12 03:52:00,
2013-04-11 22:57:00,63.5,60.8,29.70,South,190,0.0,0.0,91,0.04,RA,,0.69,WeatherDisplay:10.37,2013-04-12 03:57:00,
2013-04-11 23:00:00,63.5,60.8,29.70,South,184,1.1,0.0,91,0.04,,,0.69,WeatherDisplay:10.37,2013-04-12 04:00:00,
2013-04-11 23:01:00,63.5,61.1,29.70,South,184,0.0,0.0,92,0.04,CLR,,0.69,WeatherDisplay:10.37,2013-04-12 04:01:00,
2013-04-11 23:06:00,63.5,61.1,29.70,SSE,163,4.0,4.0,92,0.03,CLR,,0.69,WeatherDisplay:10.37,2013-04-12 04:06:00,
2013-04-11 23:11:00,63.5,61.1,29.70,WSW,250,1.1,1.1,92,0.04,RA,,0.70,WeatherDisplay:10.37,2013-04-12 04:11:00,
2013-04-11 23:16:00,63.5,61.1,29.70,WSW,252,0.0,0.0,92,0.03,RA,,0.70,WeatherDisplay:10.37,2013-04-12 04:16:00,
2013-04-11 23:21:00,63.4,61.0,29.70,WSW,252,0.0,0.0,92,0.03,,,0.70,WeatherDisplay:10.37,2013-04-12 04:21:00,
2013-04-11 23:26:00,63.4,61.0,29.70,WSW,252,0.0,0.0,92,0.04,RA,,0.71,WeatherDisplay:10.37,2013-04-12 04:26:00,
2013-04-11 23:31:00,63.4,61.0,29.70,WSW,252,1.1,0.0,92,0.04,RA,,0.71,WeatherDisplay:10.37,2013-04-12 04:31:00,
2013-04-11 23:37:00,63.4,61.0,29.69,WSW,252,1.1,0.0,92,0.03,CLR,,0.71,WeatherDisplay:10.37,2013-04-12 04:37:00,
2013-04-11 23:42:00,63.4,61.3,29.69,WSW,252,0.0,0.0,93,0.03,CLR,,0.71,WeatherDisplay:10.37,2013-04-12 04:42:00,
2013-04-11 23:47:00,63.4,61.3,29.70,WSW,252,0.0,0.0,93,0.03,CLR,,0.72,WeatherDisplay:10.37,2013-04-12 04:47:00,
2013-04-11 23:52:00,63.2,61.1,29.70,WSW,252,0.0,0.0,93,0.03,RA,,0.72,WeatherDisplay:10.37,2013-04-12 04:52:00,
2013-04-11 23:57:00,63.2,61.1,29.70,WSW,252,0.0,0.0,93,0.03,RA,,0.72,WeatherDisplay:10.37,2013-04-12 04:57:00,